DAL1556 KLAX-PHOG

Flight info

Callsign DAL1556
Flight time N/A
Altitude 30000
Route SUMMR2 DINTY DUETS/N0470F320 R576 DIALO/N0467F340 R576 DENNS LNDHY1
Aircraft B739/M-SDE2E3FGHIRWXY/LB1

Departure

Time N/A
Airport Los Angeles International Airport (KLAX)

Arrival

Time 2026-04-25 22:26
Airport Kahului International Airport (PHOG)
Time Latitude Longitude Altitude Speed Heading
2026-04-25 21:04 23.83062 -150.92871 34143 ft 466 kts 244°
2026-04-25 21:05 23.80045 -150.99139 34141 ft 467 kts 244°
2026-04-25 21:05 23.77020 -151.05415 34145 ft 467 kts 244°
2026-04-25 21:06 23.73995 -151.11687 34147 ft 467 kts 244°
2026-04-25 21:06 23.70959 -151.17973 34141 ft 468 kts 244°
2026-04-25 21:07 23.67935 -151.24225 34141 ft 469 kts 244°
2026-04-25 21:07 23.64887 -151.30517 34143 ft 469 kts 243°
2026-04-25 21:08 23.61833 -151.36814 34137 ft 470 kts 243°
2026-04-25 21:08 23.58778 -151.43107 34136 ft 470 kts 243°
2026-04-25 21:09 23.54178 -151.52566 34137 ft 471 kts 243°
2026-04-25 21:09 23.51103 -151.58879 34137 ft 472 kts 243°
2026-04-25 21:10 23.48022 -151.65196 34138 ft 472 kts 243°
2026-04-25 21:10 23.44957 -151.71469 34135 ft 472 kts 243°
2026-04-25 21:11 23.41873 -151.77776 34133 ft 472 kts 243°
2026-04-25 21:11 23.38779 -151.84096 34133 ft 472 kts 243°
2026-04-25 21:12 23.35685 -151.90405 34132 ft 472 kts 243°
2026-04-25 21:12 23.33111 -151.95650 34137 ft 472 kts 243°
2026-04-25 21:13 23.29493 -152.03011 34127 ft 472 kts 243°
2026-04-25 21:13 23.26395 -152.09305 34130 ft 472 kts 243°
2026-04-25 21:14 23.23293 -152.15600 34130 ft 472 kts 243°
2026-04-25 21:14 23.20210 -152.21847 34131 ft 472 kts 243°
2026-04-25 21:15 23.17105 -152.28133 34132 ft 471 kts 243°
2026-04-25 21:15 23.14001 -152.34409 34128 ft 471 kts 243°
2026-04-25 21:16 23.10896 -152.40679 34128 ft 471 kts 243°
2026-04-25 21:16 23.07791 -152.46940 34122 ft 471 kts 243°
2026-04-25 21:17 23.04682 -152.53206 34125 ft 470 kts 242°
2026-04-25 21:17 23.01574 -152.59453 34128 ft 470 kts 242°
2026-04-25 21:18 22.98468 -152.65650 34124 ft 470 kts 242°
2026-04-25 21:18 22.95337 -152.71877 34125 ft 470 kts 242°
2026-04-25 21:19 22.92205 -152.78104 34126 ft 469 kts 242°
2026-04-25 21:19 22.89074 -152.84326 34121 ft 469 kts 242°
2026-04-25 21:20 22.87001 -152.88443 34122 ft 469 kts 242°
2026-04-25 21:20 22.82832 -152.96710 34123 ft 469 kts 242°
2026-04-25 21:21 22.79701 -153.02912 34123 ft 469 kts 242°
2026-04-25 21:21 22.76565 -153.09113 34121 ft 469 kts 242°
2026-04-25 21:22 22.73431 -153.15305 34122 ft 468 kts 242°
2026-04-25 21:22 22.70294 -153.21495 34124 ft 468 kts 242°
2026-04-25 21:23 22.68717 -153.24603 33870 ft 472 kts 242°
2026-04-25 21:23 22.67136 -153.27718 33608 ft 471 kts 242°
2026-04-25 21:23 22.65562 -153.30816 33338 ft 469 kts 242°
2026-04-25 21:23 22.63989 -153.33912 33093 ft 470 kts 242°
2026-04-25 21:24 22.62437 -153.36963 32837 ft 467 kts 242°
2026-04-25 21:24 22.60873 -153.40037 32574 ft 463 kts 242°
2026-04-25 21:24 22.59322 -153.43082 32328 ft 463 kts 242°
2026-04-25 21:24 22.57762 -153.46145 32080 ft 464 kts 242°
2026-04-25 21:25 22.56203 -153.49203 31837 ft 465 kts 242°
2026-04-25 21:25 22.54638 -153.52273 31593 ft 466 kts 242°
2026-04-25 21:25 22.53071 -153.55344 31353 ft 466 kts 242°
2026-04-25 21:25 22.51501 -153.58418 31111 ft 467 kts 242°
2026-04-25 21:26 22.49929 -153.61495 30865 ft 467 kts 242°
2026-04-25 21:26 22.48358 -153.64569 30640 ft 468 kts 242°
2026-04-25 21:26 22.46801 -153.67614 30412 ft 469 kts 242°
2026-04-25 21:26 22.45218 -153.70705 30269 ft 472 kts 242°
2026-04-25 21:27 22.42032 -153.76925 30177 ft 474 kts 242°
2026-04-25 21:27 22.40424 -153.80061 29880 ft 477 kts 242°
2026-04-25 21:27 22.38818 -153.83193 29604 ft 474 kts 242°
2026-04-25 21:28 22.37223 -153.86299 29334 ft 472 kts 242°
2026-04-25 21:28 22.35615 -153.89407 29069 ft 475 kts 241°
2026-04-25 21:28 22.33920 -153.92480 28811 ft 477 kts 239°
2026-04-25 21:28 22.32168 -153.95530 28564 ft 479 kts 239°
2026-04-25 21:29 22.30393 -153.98578 28296 ft 480 kts 238°
2026-04-25 21:29 22.28622 -154.01620 28144 ft 478 kts 238°
2026-04-25 21:29 22.25086 -154.07746 28108 ft 480 kts 239°
2026-04-25 21:30 22.23330 -154.10808 27968 ft 481 kts 239°
2026-04-25 21:30 22.21571 -154.13882 27546 ft 479 kts 239°
2026-04-25 21:30 22.19862 -154.16870 27144 ft 468 kts 239°
2026-04-25 21:30 22.18707 -154.18887 26861 ft 464 kts 239°
2026-04-25 21:31 22.16473 -154.22790 26274 ft 458 kts 239°
2026-04-25 21:31 22.14811 -154.25690 25845 ft 452 kts 239°
2026-04-25 21:31 22.13161 -154.28567 25418 ft 449 kts 239°
2026-04-25 21:31 22.11522 -154.31423 25000 ft 445 kts 239°
2026-04-25 21:32 22.09898 -154.34252 24587 ft 443 kts 239°
2026-04-25 21:32 22.08281 -154.37067 24185 ft 440 kts 239°
2026-04-25 21:32 22.06671 -154.39868 23765 ft 439 kts 238°
2026-04-25 21:32 22.05061 -154.42668 23250 ft 438 kts 238°
2026-04-25 21:33 22.03457 -154.45457 22735 ft 437 kts 238°
2026-04-25 21:33 22.01855 -154.48239 22225 ft 436 kts 238°
2026-04-25 21:33 22.00253 -154.51020 21723 ft 435 kts 239°
2026-04-25 21:33 21.98681 -154.53750 21227 ft 433 kts 238°
2026-04-25 21:34 21.97098 -154.56495 20752 ft 431 kts 238°
2026-04-25 21:34 21.95518 -154.59234 20273 ft 429 kts 239°
2026-04-25 21:34 21.94005 -154.61999 19801 ft 427 kts 241°
2026-04-25 21:34 21.92576 -154.64796 19336 ft 425 kts 242°
2026-04-25 21:35 21.91185 -154.67597 18883 ft 424 kts 243°
2026-04-25 21:35 21.89802 -154.70399 18432 ft 422 kts 243°
2026-04-25 21:35 21.88888 -154.72247 18097 ft 421 kts 243°
2026-04-25 21:35 21.87046 -154.75951 17414 ft 417 kts 242°
2026-04-25 21:36 21.86139 -154.77765 17079 ft 414 kts 242°
2026-04-25 21:36 21.84777 -154.80478 16586 ft 410 kts 242°
2026-04-25 21:36 21.83426 -154.83162 16095 ft 406 kts 242°
2026-04-25 21:36 21.82083 -154.85825 15621 ft 403 kts 242°
2026-04-25 21:37 21.80750 -154.88464 15144 ft 400 kts 242°
2026-04-25 21:37 21.79872 -154.90200 14840 ft 398 kts 242°
2026-04-25 21:37 21.78109 -154.93687 14238 ft 394 kts 242°
2026-04-25 21:37 21.76803 -154.96270 14064 ft 392 kts 242°
2026-04-25 21:38 21.75515 -154.98814 14018 ft 391 kts 242°
2026-04-25 21:38 21.74222 -155.01369 14002 ft 387 kts 242°
2026-04-25 21:38 21.72940 -155.03899 13992 ft 384 kts 242°
2026-04-25 21:38 21.71660 -155.06426 13988 ft 384 kts 242°
2026-04-25 21:39 21.70380 -155.08950 13990 ft 385 kts 242°
2026-04-25 21:39 21.69096 -155.11482 13987 ft 385 kts 242°
2026-04-25 21:39 21.67814 -155.14008 13991 ft 385 kts 242°
2026-04-25 21:39 21.66529 -155.16539 13985 ft 386 kts 242°
2026-04-25 21:40 21.65239 -155.19081 14000 ft 390 kts 242°
2026-04-25 21:40 21.63926 -155.21665 14003 ft 401 kts 242°
2026-04-25 21:40 21.62574 -155.24324 13994 ft 407 kts 242°
2026-04-25 21:40 21.61214 -155.26997 13992 ft 409 kts 242°
2026-04-25 21:41 21.59846 -155.29683 13991 ft 411 kts 242°
2026-04-25 21:41 21.58487 -155.32351 13908 ft 415 kts 242°
2026-04-25 21:41 21.57097 -155.35079 13643 ft 416 kts 242°
2026-04-25 21:41 21.55713 -155.37794 13389 ft 413 kts 242°
2026-04-25 21:42 21.54329 -155.40508 13136 ft 416 kts 242°
2026-04-25 21:42 21.52939 -155.43233 12885 ft 415 kts 242°
2026-04-25 21:42 21.51555 -155.45944 12638 ft 414 kts 242°
2026-04-25 21:42 21.50171 -155.48652 12386 ft 412 kts 242°
2026-04-25 21:43 21.48796 -155.51343 12147 ft 411 kts 242°
2026-04-25 21:43 21.47422 -155.54030 12029 ft 411 kts 242°
2026-04-25 21:43 21.46051 -155.56709 11994 ft 409 kts 242°
2026-04-25 21:43 21.44683 -155.59383 11992 ft 407 kts 242°
2026-04-25 21:44 21.43319 -155.62046 11985 ft 407 kts 242°
2026-04-25 21:44 21.41955 -155.64709 11985 ft 408 kts 242°
2026-04-25 21:44 21.39296 -155.69894 11719 ft 380 kts 242°
2026-04-25 21:45 21.38057 -155.72306 11435 ft 360 kts 242°
2026-04-25 21:45 21.37269 -155.73840 11261 ft 348 kts 242°
2026-04-25 21:45 21.35757 -155.76785 10899 ft 327 kts 242°
2026-04-25 21:45 21.34681 -155.78878 10623 ft 314 kts 242°
2026-04-25 21:46 21.33645 -155.80896 10373 ft 307 kts 242°
2026-04-25 21:46 21.32630 -155.82872 10121 ft 305 kts 242°
2026-04-25 21:46 21.31609 -155.84860 9868 ft 303 kts 242°
2026-04-25 21:46 21.30593 -155.86834 9581 ft 301 kts 242°
2026-04-25 21:47 21.29584 -155.88796 9304 ft 299 kts 242°
2026-04-25 21:47 21.28579 -155.90749 9060 ft 298 kts 242°
2026-04-25 21:47 21.27583 -155.92684 9002 ft 296 kts 242°
2026-04-25 21:47 21.26592 -155.94609 8991 ft 293 kts 241°
2026-04-25 21:48 21.25605 -155.96524 8983 ft 293 kts 241°
2026-04-25 21:48 21.24617 -155.98441 8990 ft 295 kts 241°
2026-04-25 21:48 21.23624 -156.00367 8989 ft 295 kts 241°
2026-04-25 21:48 21.22645 -156.02264 8980 ft 294 kts 241°
2026-04-25 21:49 21.21655 -156.04184 8984 ft 294 kts 241°
2026-04-25 21:49 21.20656 -156.06119 8996 ft 298 kts 241°
2026-04-25 21:49 21.19644 -156.08079 8993 ft 301 kts 241°
2026-04-25 21:49 21.18642 -156.10018 8980 ft 293 kts 241°
2026-04-25 21:50 21.17665 -156.11880 8928 ft 281 kts 237°
2026-04-25 21:50 21.16320 -156.13367 8613 ft 278 kts 215°
2026-04-25 21:50 21.14755 -156.14566 8328 ft 275 kts 214°
2026-04-25 21:50 21.13722 -156.15344 8138 ft 274 kts 214°
2026-04-25 21:51 21.11640 -156.16911 7745 ft 272 kts 213°
2026-04-25 21:51 21.10099 -156.18076 7440 ft 271 kts 213°
2026-04-25 21:51 21.08558 -156.19246 7134 ft 271 kts 213°
2026-04-25 21:51 21.07024 -156.20412 6838 ft 270 kts 213°
2026-04-25 21:52 21.05514 -156.21562 6532 ft 270 kts 213°
2026-04-25 21:52 21.03987 -156.22727 6207 ft 268 kts 213°
2026-04-25 21:52 21.02471 -156.23883 5880 ft 268 kts 213°
2026-04-25 21:52 21.00952 -156.25041 5568 ft 267 kts 213°
2026-04-25 21:53 20.99440 -156.26196 5248 ft 267 kts 213°
2026-04-25 21:53 20.97933 -156.27346 5032 ft 262 kts 213°
2026-04-25 21:53 20.96484 -156.28454 4999 ft 250 kts 213°
2026-04-25 21:53 20.95105 -156.29507 4981 ft 238 kts 213°
2026-04-25 21:54 20.93777 -156.30520 4990 ft 232 kts 213°
2026-04-25 21:54 20.92464 -156.31520 5005 ft 232 kts 213°
2026-04-25 21:54 20.91164 -156.32566 5001 ft 235 kts 214°
2026-04-25 21:54 20.89833 -156.33578 4982 ft 237 kts 208°
2026-04-25 21:55 20.88450 -156.34576 4754 ft 243 kts 215°
2026-04-25 21:55 20.87060 -156.35651 4462 ft 247 kts 213°
2026-04-25 21:55 20.85629 -156.36701 4251 ft 251 kts 212°
2026-04-25 21:55 20.84162 -156.37723 4046 ft 249 kts 212°
2026-04-25 21:56 20.82769 -156.38751 4011 ft 238 kts 217°
2026-04-25 21:56 20.81905 -156.39446 3959 ft 229 kts 214°
2026-04-25 21:56 20.80144 -156.40711 4027 ft 230 kts 212°
2026-04-25 21:56 20.78820 -156.41683 4011 ft 231 kts 212°
2026-04-25 21:57 20.77497 -156.42661 3970 ft 235 kts 212°
2026-04-25 21:57 20.76183 -156.43632 3973 ft 228 kts 213°
2026-04-25 21:57 20.74894 -156.44590 3969 ft 223 kts 212°
2026-04-25 21:57 20.73617 -156.45541 4021 ft 225 kts 213°
2026-04-25 21:58 20.72332 -156.46497 3988 ft 225 kts 213°
2026-04-25 21:58 20.71057 -156.47445 3996 ft 222 kts 213°
2026-04-25 21:58 20.69795 -156.48383 3984 ft 220 kts 212°
2026-04-25 21:58 20.68547 -156.49311 3981 ft 218 kts 212°
2026-04-25 21:59 20.67338 -156.50282 3966 ft 218 kts 226°
2026-04-25 21:59 20.66698 -156.51713 3999 ft 215 kts 264°
2026-04-25 21:59 20.66949 -156.53261 4004 ft 213 kts 297°
2026-04-25 22:00 20.68669 -156.55918 3945 ft 222 kts 322°
2026-04-25 22:00 20.70035 -156.56489 3815 ft 207 kts
2026-04-25 22:00 20.71354 -156.56069 3759 ft 196 kts 26°
2026-04-25 22:00 20.72593 -156.55490 3672 ft 196 kts 30°
2026-04-25 22:01 20.73793 -156.54823 3584 ft 191 kts 32°
2026-04-25 22:01 20.74902 -156.54101 3359 ft 186 kts 34°
2026-04-25 22:01 20.75948 -156.53343 3126 ft 178 kts 36°
2026-04-25 22:01 20.76621 -156.52843 2963 ft 172 kts 36°
2026-04-25 22:02 20.77887 -156.51894 2689 ft 165 kts 37°
2026-04-25 22:02 20.78836 -156.51183 2469 ft 167 kts 35°
2026-04-25 22:02 20.79787 -156.50468 2285 ft 171 kts 35°
2026-04-25 22:02 20.80732 -156.49730 2102 ft 161 kts 33°
2026-04-25 22:03 20.81684 -156.49061 1779 ft 159 kts 39°
2026-04-25 22:03 20.82552 -156.48353 1555 ft 162 kts 31°
2026-04-25 22:03 20.83508 -156.47784 1450 ft 155 kts 37°
2026-04-25 22:03 20.84308 -156.47066 1222 ft 144 kts 37°
2026-04-25 22:04 20.85069 -156.46404 1010 ft 138 kts 33°
2026-04-25 22:04 20.85855 -156.45861 881 ft 138 kts 29°
2026-04-25 22:04 20.86667 -156.45300 805 ft 135 kts 35°
2026-04-25 22:04 20.87405 -156.44717 582 ft 137 kts 33°
2026-04-25 22:05 20.88193 -156.44168 385 ft 134 kts 31°
2026-04-25 22:05 20.88976 -156.43595 160 ft 143 kts 36°
2026-04-25 22:05 20.89743 -156.43008 833 ft 127 kts 31°
2026-04-25 22:05 20.90498 -156.42418 1202 ft 146 kts 35°
2026-04-25 22:06 20.91392 -156.41734 1531 ft 166 kts 37°
2026-04-25 22:06 20.92416 -156.41015 2088 ft 179 kts 29°
2026-04-25 22:06 20.93560 -156.40391 2594 ft 187 kts 28°
2026-04-25 22:06 20.94701 -156.39787 3278 ft 182 kts 28°
2026-04-25 22:07 20.95841 -156.39205 3867 ft 183 kts 28°
2026-04-25 22:07 20.96605 -156.38822 4246 ft 183 kts 31°
2026-04-25 22:07 20.98016 -156.37807 4943 ft 189 kts 38°
2026-04-25 22:07 20.99108 -156.36972 4970 ft 193 kts 38°
2026-04-25 22:08 21.00194 -156.36144 4990 ft 191 kts 38°
2026-04-25 22:08 21.01276 -156.35320 4990 ft 190 kts 38°
2026-04-25 22:08 21.02348 -156.34499 4987 ft 191 kts 38°
2026-04-25 22:08 21.03439 -156.33656 5004 ft 199 kts 38°
2026-04-25 22:09 21.04625 -156.32736 5015 ft 221 kts 38°
2026-04-25 22:09 21.05870 -156.31770 4988 ft 226 kts 39°
2026-04-25 22:09 21.07157 -156.30774 4962 ft 227 kts 38°
2026-04-25 22:09 21.08421 -156.29799 4982 ft 221 kts 38°
2026-04-25 22:10 21.09660 -156.28844 4980 ft 217 kts 38°
2026-04-25 22:10 21.10885 -156.27898 4990 ft 217 kts 38°
2026-04-25 22:10 21.12106 -156.26949 4999 ft 217 kts 38°
2026-04-25 22:10 21.13325 -156.25997 5001 ft 217 kts 38°
2026-04-25 22:11 21.14600 -156.25110 4996 ft 220 kts 33°
2026-04-25 22:11 21.15966 -156.24360 4980 ft 224 kts 15°
2026-04-25 22:11 21.17529 -156.24342 5012 ft 225 kts
2026-04-25 22:11 21.18958 -156.23818 4998 ft 216 kts 45°
2026-04-25 22:12 21.19660 -156.22476 4986 ft 212 kts 85°
2026-04-25 22:12 21.19323 -156.20967 4990 ft 216 kts 125°
2026-04-25 22:12 21.18087 -156.20053 5004 ft 226 kts 165°
2026-04-25 22:12 21.17019 -156.20035 5001 ft 233 kts 191°
2026-04-25 22:13 21.15047 -156.21008 4996 ft 237 kts 204°
2026-04-25 22:13 21.13587 -156.21836 4990 ft 238 kts 206°
2026-04-25 22:13 21.12129 -156.22686 4993 ft 239 kts 206°
2026-04-25 22:13 21.10666 -156.23542 4982 ft 239 kts 206°
2026-04-25 22:14 21.09209 -156.24395 4983 ft 238 kts 206°
2026-04-25 22:14 21.07763 -156.25254 4984 ft 237 kts 207°
2026-04-25 22:14 21.06338 -156.26141 4985 ft 236 kts 206°
2026-04-25 22:14 21.04890 -156.26961 4979 ft 235 kts 205°
2026-04-25 22:15 21.03441 -156.27763 4991 ft 234 kts 204°
2026-04-25 22:15 21.01995 -156.28556 4992 ft 233 kts 204°
2026-04-25 22:15 21.00534 -156.29311 4985 ft 233 kts 203°
2026-04-25 22:16 20.97609 -156.30778 4983 ft 233 kts 207°
2026-04-25 22:16 20.96462 -156.31961 5018 ft 233 kts 228°
2026-04-25 22:16 20.95189 -156.32987 5007 ft 229 kts 204°
2026-04-25 22:16 20.93737 -156.33771 4991 ft 237 kts 204°
2026-04-25 22:17 20.92243 -156.34583 5001 ft 239 kts 200°
2026-04-25 22:17 20.90646 -156.34912 5005 ft 231 kts 179°
2026-04-25 22:17 20.89065 -156.34957 4974 ft 229 kts 167°
2026-04-25 22:17 20.87558 -156.34527 4987 ft 225 kts 172°
2026-04-25 22:18 20.86069 -156.34931 5007 ft 228 kts 216°
2026-04-25 22:18 20.84951 -156.36195 5016 ft 239 kts 227°
2026-04-25 22:18 20.83772 -156.37524 4781 ft 252 kts 222°
2026-04-25 22:18 20.82453 -156.38780 4517 ft 256 kts 218°
2026-04-25 22:19 20.81053 -156.39951 4261 ft 255 kts 214°
2026-04-25 22:19 20.79628 -156.41057 4057 ft 250 kts 214°
2026-04-25 22:19 20.78225 -156.42112 3920 ft 244 kts 213°
2026-04-25 22:19 20.76834 -156.43146 3671 ft 243 kts 213°
2026-04-25 22:20 20.75465 -156.44165 3499 ft 235 kts 213°
2026-04-25 22:20 20.74140 -156.45151 3242 ft 228 kts 214°
2026-04-25 22:20 20.72879 -156.46112 2961 ft 218 kts 221°
2026-04-25 22:20 20.72165 -156.47450 2662 ft 203 kts 269°
2026-04-25 22:21 20.72475 -156.48825 2462 ft 184 kts 302°
2026-04-25 22:21 20.73054 -156.50032 2462 ft 186 kts 305°
2026-04-25 22:21 20.74027 -156.50845 2426 ft 175 kts 347°
2026-04-25 22:21 20.75192 -156.51176 2387 ft 172 kts 347°
2026-04-25 22:22 20.76347 -156.51519 2388 ft 173 kts 351°
2026-04-25 22:22 20.77526 -156.51501 2403 ft 169 kts
2026-04-25 22:22 20.78635 -156.51124 2383 ft 166 kts 33°
2026-04-25 22:22 20.79617 -156.50503 2269 ft 170 kts 31°
2026-04-25 22:23 20.80623 -156.49833 2064 ft 169 kts 34°
2026-04-25 22:23 20.81575 -156.49129 1845 ft 162 kts 36°
2026-04-25 22:23 20.82482 -156.48445 1619 ft 157 kts 36°
2026-04-25 22:23 20.83370 -156.47790 1416 ft 155 kts 34°
2026-04-25 22:24 20.84229 -156.47142 1210 ft 148 kts 33°
2026-04-25 22:24 20.85048 -156.46528 1032 ft 141 kts 32°
2026-04-25 22:24 20.85858 -156.45921 875 ft 143 kts 35°
2026-04-25 22:24 20.86395 -156.45511 739 ft 142 kts 35°
2026-04-25 22:25 20.87177 -156.44921 490 ft 136 kts 31°
2026-04-25 22:25 20.87940 -156.44367 344 ft 130 kts 33°
2026-04-25 22:25 20.88691 -156.43795 136 ft 134 kts 34°
2026-04-25 22:25 20.89429 -156.43249 49 ft 111 kts 34°
2026-04-25 22:26 20.89883 -156.42914 34 ft 41 kts 34°
2026-04-25 22:26 20.90009 -156.42876 30 ft 12 kts 306°
2026-04-25 22:26 20.90009 -156.42963 31 ft 12 kts 245°
2026-04-25 22:26 20.89949 -156.43023 32 ft 12 kts 215°
2026-04-25 22:27 20.89882 -156.43073 35 ft 11 kts 214°
2026-04-25 22:27 20.89818 -156.43121 37 ft 12 kts 214°
2026-04-25 22:27 20.89734 -156.43181 40 ft 15 kts 214°
2026-04-25 22:27 20.89651 -156.43246 43 ft 12 kts 216°
2026-04-25 22:28 20.89614 -156.43295 41 ft 6 kts 264°
2026-04-25 22:28 20.89637 -156.43331 41 ft 7 kts 321°
2026-04-25 22:28 20.89667 -156.43370 39 ft 2 kts 303°
2026-04-25 22:28 20.89674 -156.43383 38 ft 1 kts 304°
2026-04-25 22:29 20.89675 -156.43384 38 ft 0 kts 304°